DT_LEITURA;HR_LEITURA;MED-PressaoAtm[hPa];VAL-TempExt[oC];VAL-UmidExt[%UR];VAL-TempInt[oC];VAL-UmidInt[%UR];Dir-Vento[grau];Vel-Vento[m/s];Precipitação[mm/h]
14/08/2026;00:00:00;1013,0;-33,6;0;29,3;77;124;1,3;0,0
14/08/2026;00:05:00;1013,0;-33,7;0;29,3;76;127;1,5;0,0
14/08/2026;00:10:00;1012,9;-33,7;0;29,2;76;127;1,5;0,0
14/08/2026;00:15:00;1012,9;-33,8;0;29,2;75;117;1,1;0,0
14/08/2026;00:20:00;1012,8;-33,9;0;29,1;74;118;1,5;0,0
14/08/2026;00:25:00;1012,8;-33,9;0;29,1;72;122;1,7;0,0
14/08/2026;00:30:00;1012,9;-33,9;0;29,0;71;120;1,7;0,0
14/08/2026;00:35:00;1012,8;-33,9;0;29,0;70;115;1,6;0,0
14/08/2026;00:40:00;1012,8;-33,9;0;28,9;71;119;1,5;0,0
14/08/2026;00:45:00;1012,9;-34,0;0;28,9;71;120;1,2;0,0
14/08/2026;00:50:00;1012,9;-34,1;0;28,8;72;122;1,0;0,0
14/08/2026;00:55:00;1012,8;-34,1;0;28,8;72;128;1,0;0,0
14/08/2026;01:00:00;1012,8;-34,2;0;28,7;73;127;1,0;0,0
14/08/2026;01:05:00;1012,7;-34,1;0;28,7;74;128;1,1;0,0
14/08/2026;01:10:00;1012,7;-34,2;0;28,7;74;123;1,2;0,0
14/08/2026;01:15:00;1012,7;-34,3;0;28,6;75;114;1,3;0,0
14/08/2026;01:20:00;1012,6;-34,3;0;28,6;75;118;1,2;0,0
14/08/2026;01:25:00;1012,5;-34,4;0;28,6;76;122;1,0;0,0
14/08/2026;01:30:00;1012,4;-34,5;0;28,6;77;113;1,3;0,0
14/08/2026;01:35:00;1012,4;-34,6;0;28,6;77;114;0,8;0,0
14/08/2026;01:40:00;1012,3;-34,6;0;28,6;77;118;1,1;0,0
14/08/2026;01:45:00;1012,3;-34,7;0;28,6;77;117;1,2;0,0
14/08/2026;01:50:00;1012,3;-34,8;0;28,6;78;115;1,2;0,0
14/08/2026;01:55:00;1012,2;-34,8;0;28,6;78;127;1,0;0,0
14/08/2026;02:00:00;1012,1;-34,8;0;28,5;78;111;1,3;0,0
14/08/2026;02:05:00;1012,1;-34,9;0;28,5;78;121;1,2;0,0
14/08/2026;02:10:00;1012,0;-35,0;0;28,5;78;123;0,9;0,0
14/08/2026;02:15:00;1012,0;-35,0;0;28,4;78;117;1,1;0,0
14/08/2026;02:20:00;1011,9;-35,1;0;28,4;78;120;1,2;0,0
14/08/2026;02:25:00;1011,8;-35,1;0;28,4;78;115;1,2;0,0
14/08/2026;02:30:00;1011,8;-35,1;0;28,4;79;124;1,0;0,0
14/08/2026;02:35:00;1011,8;-35,2;0;28,3;79;125;0,8;0,0
14/08/2026;02:40:00;1011,7;-35,2;0;28,3;79;119;0,8;0,0
14/08/2026;02:45:00;1011,7;-35,2;0;28,3;79;129;0,9;0,0
14/08/2026;02:50:00;1011,7;-35,3;0;28,3;79;117;0,8;0,0
14/08/2026;02:55:00;1011,7;-35,3;0;28,2;79;125;1,0;0,0
14/08/2026;03:00:00;1011,7;-35,3;0;28,2;79;113;0,9;0,0
14/08/2026;03:05:00;1011,6;-35,4;0;28,2;79;122;0,9;0,0
14/08/2026;03:10:00;1011,6;-35,4;0;28,2;79;110;1,0;0,0
14/08/2026;03:15:00;1011,6;-35,4;0;28,2;79;119;1,1;0,0
14/08/2026;03:20:00;1011,6;-35,4;0;28,1;79;122;1,2;0,0
14/08/2026;03:25:00;1011,6;-35,4;0;28,1;80;115;1,3;0,0
14/08/2026;03:30:00;1011,5;-35,5;0;28,1;80;118;1,0;0,0
14/08/2026;03:35:00;1011,6;-35,5;0;28,1;80;117;1,1;0,0
14/08/2026;03:40:00;1011,6;-35,5;0;28,1;80;113;0,9;0,0
14/08/2026;03:45:00;1011,6;-35,5;0;28,1;80;118;1,2;0,0
14/08/2026;03:50:00;1011,6;-35,5;0;28,0;80;125;1,1;0,0
14/08/2026;03:55:00;1011,6;-35,6;0;28,0;80;128;1,0;0,0
14/08/2026;04:00:00;1011,6;-35,6;0;28,0;80;134;1,0;0,0
14/08/2026;04:05:00;1011,6;-35,6;0;28,0;80;139;0,9;0,0
14/08/2026;04:10:00;1011,6;-35,6;0;27,9;80;129;0,9;0,0
14/08/2026;04:15:00;1011,7;-35,6;0;27,9;80;125;0,9;0,0
14/08/2026;04:20:00;1011,7;-35,7;0;27,9;80;125;0,7;0,0
14/08/2026;04:25:00;1011,7;-35,7;0;27,9;80;120;0,8;0,0
14/08/2026;04:30:00;1011,7;-35,7;0;27,9;80;117;0,9;0,0
14/08/2026;04:35:00;1011,7;-35,7;0;27,9;80;121;0,9;0,0
14/08/2026;04:40:00;1011,7;-35,7;0;27,9;80;154;0,6;0,0
14/08/2026;04:45:00;1011,7;-35,7;0;27,9;80;141;0,6;0,0
14/08/2026;04:50:00;1011,7;-35,7;0;27,9;81;144;0,7;0,0
14/08/2026;04:55:00;1011,7;-35,8;0;27,9;81;154;0,5;0,0
14/08/2026;05:00:00;1011,8;-35,8;0;27,8;81;154;0,4;0,0
14/08/2026;05:05:00;1011,8;-35,8;0;27,8;81;145;0,5;0,0
14/08/2026;05:10:00;1011,8;-35,8;0;27,8;81;166;0,4;0,0
14/08/2026;05:15:00;1011,8;-35,8;0;27,8;81;160;0,3;0,0
14/08/2026;05:20:00;1011,8;-35,8;0;27,8;81;163;0,6;0,0
14/08/2026;05:25:00;1011,9;-35,8;0;27,8;81;175;0,3;0,0
14/08/2026;05:30:00;1011,9;-35,9;0;27,7;81;140;0,6;0,0
14/08/2026;05:35:00;1011,9;-35,9;0;27,7;81;140;0,6;0,0
14/08/2026;05:40:00;1011,9;-35,9;0;27,7;81;136;0,7;0,0
14/08/2026;05:45:00;1011,9;-35,9;0;27,6;81;147;0,6;0,0
14/08/2026;05:50:00;1011,9;-35,9;0;27,6;81;176;0,5;0,0
14/08/2026;05:55:00;1011,8;-35,9;0;27,6;81;160;0,4;0,0
14/08/2026;06:00:00;1011,9;-35,9;0;27,6;81;160;0,4;0,0
14/08/2026;06:05:00;1011,9;-35,9;0;27,6;81;186;0,4;0,0
14/08/2026;06:10:00;1012,0;-35,9;0;27,6;81;140;0,6;0,0
14/08/2026;06:15:00;1012,0;-35,9;0;27,6;81;175;0,3;0,0
14/08/2026;06:20:00;1012,1;-36,0;0;27,6;82;144;0,6;0,0
14/08/2026;06:25:00;1012,1;-36,0;0;27,6;82;150;0,7;0,0
14/08/2026;06:30:00;1012,1;-36,0;0;27,6;82;146;0,6;0,0
14/08/2026;06:35:00;1012,2;-36,0;0;27,6;82;134;0,6;0,0
14/08/2026;06:40:00;1012,3;-36,0;0;27,6;82;137;0,7;0,0
14/08/2026;06:45:00;1012,3;-36,0;0;27,6;82;142;0,7;0,0
14/08/2026;06:50:00;1012,4;-36,0;0;27,6;82;141;0,5;0,0
14/08/2026;06:55:00;1012,5;-36,0;0;27,6;82;127;0,6;0,0
14/08/2026;07:00:00;1012,6;-36,0;0;27,6;82;122;0,7;0,0
14/08/2026;07:05:00;1012,6;-36,0;0;27,7;82;140;0,7;0,0
14/08/2026;07:10:00;1012,7;-36,0;0;27,7;82;137;0,6;0,0
14/08/2026;07:15:00;1012,7;-36,0;0;27,8;82;141;0,5;0,0
14/08/2026;07:20:00;1012,8;-36,0;0;27,8;82;164;0,5;0,0
14/08/2026;07:25:00;1012,9;-36,0;0;27,9;82;124;0,6;0,0
14/08/2026;07:30:00;1013,0;-36,0;0;28,0;82;127;0,9;0,0
14/08/2026;07:35:00;1013,0;-36,0;0;28,1;81;128;0,8;0,0
14/08/2026;07:40:00;1013,1;-36,0;0;28,1;81;126;0,9;0,0
14/08/2026;07:45:00;1013,1;-36,0;0;28,2;80;116;1,1;0,0
14/08/2026;07:50:00;1013,2;-36,0;0;28,3;80;121;0,9;0,0
14/08/2026;07:55:00;1013,3;-35,9;0;28,4;79;129;1,5;0,0
14/08/2026;08:00:00;1013,4;-35,9;0;28,6;78;128;2,0;0,0
14/08/2026;08:05:00;1013,4;-35,9;0;28,6;77;123;1,6;0,0
14/08/2026;08:10:00;1013,5;-35,9;0;28,7;76;133;1,6;0,0
14/08/2026;08:15:00;1013,5;-35,9;0;28,8;76;142;1,4;0,0
14/08/2026;08:20:00;1013,5;-35,8;0;29,0;76;161;1,2;0,0
14/08/2026;08:25:00;1013,6;-35,8;0;29,0;75;141;1,1;0,0
14/08/2026;08:30:00;1013,6;-35,8;0;29,2;75;164;1,0;0,0
14/08/2026;08:35:00;1013,6;-35,7;0;29,3;75;126;1,2;0,0
14/08/2026;08:40:00;1013,6;-35,6;0;29,4;74;126;1,5;0,0
14/08/2026;08:45:00;1013,7;-35,5;0;29,6;73;133;1,4;0,0
14/08/2026;08:50:00;1013,8;-35,3;0;29,7;73;159;1,3;0,0
14/08/2026;08:55:00;1013,9;-35,1;0;29,8;72;127;1,5;0,0
14/08/2026;09:00:00;1013,9;-34,7;0;30,0;72;145;1,1;0,0
14/08/2026;09:05:00;1014,0;-34,4;0;30,1;71;146;1,3;0,0
14/08/2026;09:10:00;1014,1;-33,9;0;30,3;71;158;1,3;0,0
14/08/2026;09:15:00;1014,1;-33,3;0;30,4;70;143;0,8;0,0
14/08/2026;09:20:00;1014,1;-32,3;0;30,7;69;139;1,3;0,0
14/08/2026;09:25:00;1014,1;-30,5;0;31,0;68;139;1,4;0,0
14/08/2026;09:30:00;1014,1;-26,2;0;31,5;67;134;1,3;0,0
14/08/2026;09:35:00;1014,2;-22,9;0;32,0;65;149;1,4;0,0
14/08/2026;09:40:00;1014,2;-20,4;0;32,6;63;139;1,4;0,0
14/08/2026;09:45:00;1014,2;-19,4;0;33,1;61;141;1,5;0,0
14/08/2026;09:50:00;1014,3;-19,1;0;33,6;59;135;1,7;0,0
14/08/2026;09:55:00;1014,3;-19,0;0;34,0;57;134;1,6;0,0
14/08/2026;10:00:00;1014,3;-18,5;0;34,3;56;137;1,6;0,0
14/08/2026;10:05:00;1014,3;-19,1;0;34,0;57;143;1,5;0,0
14/08/2026;10:10:00;1014,3;-19,2;0;34,1;57;135;1,7;0,0
14/08/2026;10:15:00;1014,4;-19,3;0;34,2;57;134;1,5;0,0
14/08/2026;10:20:00;1014,4;-19,3;0;34,3;57;127;1,4;0,0
14/08/2026;10:25:00;1014,4;-19,4;0;34,7;55;134;1,7;0,0
14/08/2026;10:30:00;1014,4;-19,4;0;35,1;54;138;1,2;0,0
14/08/2026;10:35:00;1014,4;-19,6;0;35,3;53;125;1,4;0,0
14/08/2026;10:40:00;1014,5;-19,6;0;35,0;53;121;1,6;0,0
14/08/2026;10:45:00;1014,5;-19,2;0;34,6;55;133;1,5;0,0
14/08/2026;10:50:00;1014,4;-19,7;0;34,8;54;134;1,4;0,0
14/08/2026;10:55:00;1014,4;-19,8;0;35,0;54;137;1,2;0,0
14/08/2026;11:00:00;1014,4;-19,8;0;35,3;53;134;1,4;0,0
14/08/2026;11:05:00;1014,3;-19,8;0;35,5;53;154;1,1;0,0
14/08/2026;11:10:00;1014,3;-19,8;0;35,8;51;132;1,4;0,0
14/08/2026;11:15:00;1014,3;-19,7;0;35,6;51;138;1,8;0,0
14/08/2026;11:20:00;1014,3;-19,9;0;35,3;52;129;1,6;0,0
14/08/2026;11:25:00;1014,3;-19,9;0;35,1;53;132;1,2;0,0
14/08/2026;11:30:00;1014,3;-19,4;0;35,1;53;133;1,6;0,0
14/08/2026;11:35:00;1014,2;-19,9;0;35,4;52;131;1,5;0,0
14/08/2026;11:40:00;1014,2;-20,0;0;35,5;52;137;1,5;0,0
14/08/2026;11:45:00;1014,1;-20,0;0;35,4;53;156;0,9;0,0
14/08/2026;11:50:00;1014,0;-20,0;0;35,4;53;145;0,9;0,0
14/08/2026;11:55:00;1014,0;-20,0;0;35,3;54;150;1,1;0,0
14/08/2026;12:00:00;1013,9;-19,9;0;35,3;53;144;1,1;0,0
14/08/2026;12:05:00;1013,8;-19,8;0;35,5;53;136;1,4;0,0
14/08/2026;12:10:00;1013,7;-19,8;0;35,9;52;138;1,3;0,0
14/08/2026;12:15:00;1013,7;-19,2;0;36,2;51;146;1,2;0,0
14/08/2026;12:20:00;1013,7;-19,7;0;36,6;51;138;1,2;0,0
14/08/2026;12:25:00;1013,7;-19,7;0;36,9;49;137;1,1;0,0
14/08/2026;12:30:00;1013,7;-19,7;0;37,3;49;131;1,3;0,0
14/08/2026;12:35:00;1013,6;-19,7;0;37,6;48;141;1,2;0,0
14/08/2026;12:40:00;1013,6;-19,7;0;38,0;47;135;1,3;0,0
14/08/2026;12:45:00;1013,5;-19,2;0;38,0;47;137;1,3;0,0
14/08/2026;12:50:00;1013,4;-19,7;0;38,2;47;143;1,2;0,0
14/08/2026;12:55:00;1013,3;-19,6;0;38,5;46;137;0,9;0,0
14/08/2026;13:00:00;1013,1;-19,7;0;38,2;45;130;1,2;0,0
14/08/2026;13:05:00;1013,0;-19,8;0;38,1;47;133;1,2;0,0
14/08/2026;13:10:00;1012,9;-19,7;0;38,1;45;116;1,2;0,0
14/08/2026;13:15:00;1012,9;-19,7;0;37,9;46;133;1,5;0,0
14/08/2026;13:20:00;1012,8;-19,6;0;38,2;46;134;1,4;0,0
14/08/2026;13:25:00;1012,8;-19,6;0;38,6;45;123;1,1;0,0
14/08/2026;13:30:00;1012,7;-19,6;0;38,9;44;131;1,3;0,0
14/08/2026;13:35:00;1012,6;-19,5;0;39,2;43;131;1,2;0,0
14/08/2026;13:40:00;1012,6;-19,5;0;39,4;43;125;1,4;0,0
14/08/2026;13:45:00;1012,5;-19,7;0;39,6;42;132;1,5;0,0
14/08/2026;13:50:00;1012,4;-19,7;0;39,6;42;131;1,3;0,0
14/08/2026;13:55:00;1012,3;-19,7;0;39,8;42;135;1,2;0,0
14/08/2026;14:00:00;1012,3;-19,7;0;40,0;42;130;1,6;0,0
14/08/2026;14:05:00;1012,2;-19,6;0;40,3;41;132;1,3;0,0
14/08/2026;14:10:00;1012,1;-19,6;0;40,5;40;135;1,4;0,0
14/08/2026;14:15:00;1012,1;-19,6;0;40,5;40;132;1,2;0,0
14/08/2026;14:20:00;1012,0;-19,5;0;40,6;40;126;1,5;0,0
14/08/2026;14:25:00;1012,0;-19,6;0;40,7;39;136;1,5;0,0
14/08/2026;14:30:00;1012,0;-19,1;0;40,8;39;124;1,7;0,0
14/08/2026;14:35:00;1011,9;-19,6;0;40,9;38;126;1,5;0,0
14/08/2026;14:40:00;1011,9;-19,6;0;41,0;38;133;1,1;0,0
14/08/2026;14:45:00;1011,8;-19,6;0;41,1;38;135;1,1;0,0
14/08/2026;14:50:00;1011,8;-19,6;0;41,2;38;140;1,0;0,0
14/08/2026;14:55:00;1011,7;-19,5;0;41,4;38;131;1,4;0,0
14/08/2026;15:00:00;1011,7;-19,7;0;41,3;37;138;1,2;0,0
14/08/2026;15:05:00;1011,6;-19,8;0;41,0;38;131;1,0;0,0
14/08/2026;15:10:00;1011,5;-19,8;0;41,0;38;136;1,0;0,0
14/08/2026;15:15:00;1011,4;-19,3;0;41,1;38;154;1,1;0,0
14/08/2026;15:20:00;1011,4;-19,7;0;41,2;38;145;1,2;0,0
14/08/2026;15:25:00;1011,3;-19,8;0;41,4;37;125;1,3;0,0
14/08/2026;15:30:00;1011,3;-19,7;0;41,4;36;130;1,1;0,0
14/08/2026;15:35:00;1011,2;-19,8;0;41,3;37;137;1,0;0,0
14/08/2026;15:40:00;1011,2;-19,7;0;41,4;37;126;1,3;0,0
14/08/2026;15:45:00;1011,1;-19,7;0;41,4;36;137;0,9;0,0
14/08/2026;15:50:00;1011,1;-19,7;0;41,3;37;118;1,1;0,0
14/08/2026;15:55:00;1011,0;-19,6;0;41,4;37;131;1,1;0,0
14/08/2026;16:00:00;1011,0;-19,7;0;41,4;36;127;1,3;0,0
14/08/2026;16:05:00;1011,0;-19,6;0;41,4;36;121;1,3;0,0
14/08/2026;16:10:00;1010,9;-19,7;0;41,2;37;127;1,1;0,0
14/08/2026;16:15:00;1010,9;-19,2;0;41,2;37;127;0,8;0,0
14/08/2026;16:20:00;1011,0;-19,8;0;40,7;38;122;0,8;0,0
14/08/2026;16:25:00;1011,0;-19,8;0;40,0;39;118;1,0;0,0
14/08/2026;16:30:00;1010,9;-19,8;0;39,2;40;130;1,2;0,0
14/08/2026;16:35:00;1010,9;-19,9;0;38,6;41;126;1,2;0,0
14/08/2026;16:40:00;1010,8;-19,9;0;38,1;43;120;1,0;0,0
14/08/2026;16:45:00;1010,9;-20,1;0;37,8;44;124;1,0;0,0
14/08/2026;16:50:00;1010,8;-20,2;0;37,5;44;123;1,1;0,0
14/08/2026;16:55:00;1010,8;-20,2;0;37,2;45;124;1,1;0,0
14/08/2026;17:00:00;1010,8;-19,7;0;36,9;46;128;1,3;0,0
14/08/2026;17:05:00;1010,8;-20,2;0;36,6;47;129;1,2;0,0
14/08/2026;17:10:00;1010,8;-20,3;0;36,4;48;133;1,1;0,0
14/08/2026;17:15:00;1010,9;-20,4;0;36,1;49;126;1,2;0,0
14/08/2026;17:20:00;1010,9;-20,4;0;35,8;50;120;1,1;0,0
14/08/2026;17:25:00;1010,8;-20,5;0;35,5;50;128;0,9;0,0
14/08/2026;17:30:00;1010,9;-20,4;0;35,2;51;128;1,3;0,0
14/08/2026;17:35:00;1010,9;-20,8;0;35,0;52;120;1,3;0,0
14/08/2026;17:40:00;1010,9;-20,7;0;34,8;53;124;1,1;0,0
14/08/2026;17:45:00;1010,9;-20,7;0;34,6;53;122;1,5;0,0
14/08/2026;17:50:00;1010,9;-20,7;0;34,4;54;120;1,2;0,0
14/08/2026;17:55:00;1011,0;-20,9;0;34,2;55;122;1,4;0,0
14/08/2026;18:00:00;1011,2;-20,6;0;34,0;56;126;1,3;0,0
14/08/2026;18:05:00;1011,2;-21,0;0;33,9;57;133;1,3;0,0
14/08/2026;18:10:00;1011,2;-21,0;0;33,8;57;126;2,2;0,0
14/08/2026;18:15:00;1011,2;-21,1;0;33,7;57;137;2,2;0,0
14/08/2026;18:20:00;1011,3;-21,1;0;33,5;58;132;1,7;0,0
14/08/2026;18:25:00;1011,3;-21,2;0;33,2;58;136;1,9;0,0
14/08/2026;18:30:00;1011,3;-21,2;0;33,0;54;128;1,2;0,0
14/08/2026;18:35:00;1011,4;-21,3;0;32,7;51;128;1,5;0,0
14/08/2026;18:40:00;1011,6;-21,4;0;32,6;53;130;1,7;0,0
14/08/2026;18:45:00;1011,7;-21,5;0;32,4;54;130;2,2;0,0
14/08/2026;18:50:00;1011,7;-21,8;0;32,3;55;127;2,5;0,0
14/08/2026;18:55:00;1011,7;-22,0;0;32,1;56;125;2,6;0,0
14/08/2026;19:00:00;1011,7;-22,2;0;31,8;57;130;1,9;0,0
14/08/2026;19:05:00;1011,7;-22,8;0;31,5;59;130;1,7;0,0
14/08/2026;19:10:00;1011,5;-23,4;0;31,2;59;131;1,2;0,0
14/08/2026;19:15:00;1011,5;-23,8;0;30,9;60;156;1,2;0,0
14/08/2026;19:20:00;1011,5;-24,7;0;30,7;61;133;1,0;0,0
14/08/2026;19:25:00;1011,5;-25,3;0;30,5;61;119;1,0;0,0
14/08/2026;19:30:00;1011,5;-25,8;0;30,4;62;143;0,6;0,0
14/08/2026;19:35:00;1011,5;-26,1;0;30,3;63;165;0,6;0,0
14/08/2026;19:40:00;1011,6;-26,3;0;30,2;63;182;0,3;0,0
14/08/2026;19:45:00;1011,6;-26,5;0;30,2;64;198;0,5;0,0
14/08/2026;19:50:00;1011,6;-26,7;0;30,1;63;148;0,5;0,0
14/08/2026;19:55:00;1011,7;-26,8;0;30,1;64;164;0,7;0,0
14/08/2026;20:00:00;1011,7;-27,1;0;30,0;63;164;0,7;0,0
14/08/2026;20:05:00;1011,8;-27,5;0;29,9;64;137;0,9;0,0
14/08/2026;20:10:00;1011,9;-27,8;0;29,8;65;128;0,9;0,0
14/08/2026;20:15:00;1012,0;-28,2;0;29,7;65;132;0,8;0,0
14/08/2026;20:20:00;1012,1;-28,8;0;29,6;65;138;0,5;0,0
14/08/2026;20:25:00;1012,1;-29,3;0;29,6;66;151;0,6;0,0
14/08/2026;20:30:00;1012,3;-29,8;0;29,5;67;156;0,4;0,0
14/08/2026;20:35:00;1012,4;-30,2;0;29,5;67;163;0,4;0,0
14/08/2026;20:40:00;1012,5;-30,5;0;29,5;68;136;0,8;0,0
14/08/2026;20:45:00;1012,5;-30,7;0;29,5;68;124;0,8;0,0
14/08/2026;20:50:00;1012,6;-31,1;0;29,5;68;161;0,5;0,0
14/08/2026;20:55:00;1012,7;-31,3;0;29,4;68;179;0,5;0,0
14/08/2026;21:00:00;1012,8;-31,5;0;29,4;69;177;0,6;0,0
14/08/2026;21:05:00;1012,8;-31,7;0;29,4;69;188;0,4;0,0
14/08/2026;21:10:00;1012,9;-31,9;0;29,4;69;152;0,9;0,0
14/08/2026;21:15:00;1013,0;-32,0;0;29,4;70;125;0,9;0,0
14/08/2026;21:20:00;1013,0;-32,2;0;29,4;70;141;0,9;0,0
14/08/2026;21:25:00;1013,1;-32,3;0;29,4;71;122;1,5;0,0
14/08/2026;21:30:00;1013,2;-34,7;0;29,2;76;128;1,1;0,0
14/08/2026;21:35:00;1013,2;-37,8;0;28,7;80;188;0,6;0,0
14/08/2026;21:40:00;1013,3;-37,7;0;28,3;81;142;1,0;0,0
14/08/2026;21:45:00;1013,4;-37,2;0;28,1;83;156;0,6;0,0
14/08/2026;21:50:00;1013,4;-36,2;0;27,9;84;170;0,7;0,0
14/08/2026;21:55:00;1013,5;-36,1;0;27,8;85;198;0,7;0,0
14/08/2026;22:00:00;1013,6;-36,1;0;27,8;86;190;0,7;0,0
14/08/2026;22:05:00;1013,7;-36,1;0;27,8;86;160;0,8;0,0
14/08/2026;22:10:00;1013,7;-36,2;0;27,8;87;165;0,9;0,0
14/08/2026;22:15:00;1013,7;-36,2;0;27,8;87;156;1,0;0,0
14/08/2026;22:20:00;1013,7;-36,2;0;27,8;87;179;1,1;0,0
14/08/2026;22:25:00;1013,8;-36,3;0;27,8;87;171;0,8;0,0
14/08/2026;22:30:00;1013,8;-36,3;0;27,8;88;172;0,9;0,0
14/08/2026;22:35:00;1013,9;-36,3;0;27,8;88;146;0,8;0,0
14/08/2026;22:40:00;1014,0;-36,3;0;27,8;88;124;1,0;0,0
14/08/2026;22:45:00;1013,9;-36,3;0;27,8;88;131;0,9;0,0
14/08/2026;22:50:00;1014,0;-36,3;0;27,8;87;117;1,2;0,0
14/08/2026;22:55:00;1013,9;-36,3;0;27,8;87;127;1,1;0,0
14/08/2026;23:00:00;1013,9;-36,3;0;27,8;87;121;1,1;0,0
14/08/2026;23:05:00;1014,0;-36,3;0;27,8;87;126;1,1;0,0
14/08/2026;23:10:00;1014,0;-36,3;0;27,7;87;148;0,8;0,0
14/08/2026;23:15:00;1013,9;-36,3;0;27,7;87;137;0,9;0,0
14/08/2026;23:20:00;1013,8;-36,3;0;27,7;87;160;0,9;0,0
14/08/2026;23:25:00;1013,8;-36,3;0;27,6;87;175;0,9;0,0
14/08/2026;23:30:00;1013,9;-36,3;0;27,6;87;153;1,0;0,0
14/08/2026;23:35:00;1013,9;-36,3;0;27,6;87;130;1,1;0,0
14/08/2026;23:40:00;1013,8;-36,3;0;27,6;87;134;0,9;0,0
14/08/2026;23:45:00;1013,8;-36,3;0;27,5;87;132;1,1;0,0
14/08/2026;23:50:00;1013,8;-36,3;0;27,5;87;132;1,3;0,0
14/08/2026;23:55:00;1013,7;-36,3;0;27,5;86;133;1,3;0,0
